Flag for Russia Weather past 2 weeks in Murmansk, Russia

Now
50 °F

Sprinkles. Partly cloudy.


Feels Like: 49 °F
Forecast: 44 / 51 °F
Wind: 3 mph from Northwest

Location: Murmansk Airport

Current Time: Sep 1, 2015 at 6:54:30 AM

Latest Report: Sep 1, 2015 at 6:00 AM


Visibility: N/A

Pressure: 29.77 "Hg

Humidity: 94%

Dew point: 48 °F

Location of MurmanskLocation

Historic Weather in Murmansk — Graph

°F

Murmansk temperature yesterday

Maximum temperature yesterday: 63 °F (at 2:30 PM)
Minimum temperature yesterday: 43 °F (at 3:30 AM)
Average temperature yesterday: 54 °F

Past Weeks' High & Low Weather Summary

 TemperatureHumidityPressure
High77 °F (Aug 21, 2:30 PM)94% (Aug 19, 4:30 AM)30.36 "Hg (Aug 19, 4:30 AM)
Low32 °F (Aug 29, 4:00 AM)31% (Aug 20, 5:00 PM)29.74 "Hg (Aug 29, 11:00 AM)
Average55 °F72%30.08 "Hg
* Reported Aug 17 5:00 AM — Sep 1 5:30 AM, Murmansk, Weather by CustomWeather, © 2015

Note: Actual official high and low records may vary slightly from our data, if they occured in-between our weather recording intervals... More about our weather records

Advertising

Murmansk weather history for previous 24 hours

 ConditionsComfort  
Time TempWeatherWind HumidityBarometerVisibility
5:30 AM
Tue, Sep 1
50 °FSprinkles. Passing clouds.1 mph94%29.77 "HgN/A
5:00 AM52 °FSprinkles. Passing clouds.1 mph88%29.77 "HgN/A
4:30 AM50 °FSprinkles. Passing clouds.1 mph94%29.77 "HgN/A
4:00 AM50 °FSprinkles. Passing clouds.1 mph94%29.77 "Hg5 mi
3:30 AM50 °FPassing clouds.No wind94%29.77 "HgN/A
3:00 AM50 °FPassing clouds.1 mph94%29.77 "HgN/A
2:30 AM50 °FPassing clouds.1 mph94%29.77 "HgN/A
2:00 AM52 °FSprinkles. Passing clouds.No wind88%29.77 "HgN/A
1:30 AM52 °FSprinkles. Passing clouds.1 mph94%29.77 "HgN/A
1:00 AM52 °FClear.6 mph88%29.77 "Hg10 mi
12:00 AM50 °FPassing clouds.1 mph94%29.80 "HgN/A
11:30 PM
Mon, Aug 31
52 °FPassing clouds.1 mph88%29.80 "HgN/A
11:00 PM52 °FPassing clouds.3 mph94%29.80 "HgN/A
10:30 PM52 °FSprinkles. Passing clouds.1 mph88%29.80 "HgN/A
10:00 PM52 °FPassing clouds.3 mph88%29.80 "HgN/A
9:30 PM52 °FSprinkles. Partly sunny.6 mph88%29.80 "HgN/A
9:00 PM54 °FSprinkles. Partly sunny.3 mph82%29.80 "HgN/A
8:30 PM55 °FSprinkles. Partly sunny.3 mph77%29.80 "HgN/A
8:00 PM55 °FPassing clouds.6 mph77%29.80 "HgN/A
7:30 PM57 °FPassing clouds.6 mph67%29.80 "HgN/A
7:00 PM59 °FPassing clouds.6 mph63%29.80 "HgN/A
6:30 PM61 °FScattered clouds.3 mph59%29.80 "HgN/A
6:00 PM61 °FScattered clouds.3 mph59%29.80 "HgN/A
5:30 PM61 °FScattered clouds.3 mph55%29.80 "HgN/A
5:00 PM63 °FPassing clouds.6 mph52%29.83 "HgN/A
4:00 PM63 °FScattered clouds.8 mph52%29.83 "HgN/A
3:30 PM61 °FScattered clouds.8 mph59%29.83 "HgN/A
3:00 PM59 °FPartly sunny.8 mph59%29.83 "HgN/A
2:30 PM63 °FPartly sunny.10 mph56%29.83 "HgN/A
2:00 PM59 °FPartly sunny.6 mph63%29.83 "HgN/A
1:30 PM59 °FPartly sunny.8 mph63%29.83 "HgN/A
1:00 PM59 °FPartly sunny.8 mph63%29.83 "HgN/A
12:30 PM61 °FScattered clouds.8 mph59%29.83 "HgN/A
12:00 PM61 °FScattered clouds.8 mph59%29.83 "HgN/A
11:30 AM59 °FScattered clouds.8 mph63%29.83 "HgN/A
11:00 AM57 °FScattered clouds.6 mph63%29.83 "HgN/A
10:30 AM57 °FPartly sunny.8 mph63%29.83 "HgN/A
10:00 AM57 °FPassing clouds.6 mph63%29.83 "HgN/A
9:30 AM55 °FPassing clouds.8 mph67%29.86 "HgN/A
9:00 AM54 °FPassing clouds.8 mph72%29.86 "HgN/A
8:30 AM54 °FSunny.8 mph72%29.86 "Hg10 mi
8:00 AM52 °FSunny.6 mph77%29.86 "Hg10 mi
7:30 AM50 °FSunny.8 mph76%29.86 "Hg10 mi
7:00 AM48 °FSunny.8 mph82%29.86 "Hg10 mi
6:30 AM46 °FPassing clouds.6 mph87%29.86 "HgN/A
6:00 AM46 °FPassing clouds.6 mph82%29.86 "HgN/A
Weather by CustomWeather, © 2015

See weather overviewHow to use our weather pages